Ithaca, NY

10:57 AM EDT on May 25, 2018 (GMT -0400)
Tompkins County

Weather History for KITH - June, 2013

Change the Weather History Date:

Sunday, June 30, 2013

  Actual Average Record
Temperature  
Mean Temperature 68 °F -  
Max Temperature 79 °F 77 °F 98 °F (1931)
Min Temperature 57 °F 56 °F 44 °F (1989)
Cooling Degree Days 3    
Growing Degree Days 18 (Base 50)    
Moisture  
Dew Point 63 °F    
Average Humidity 85    
Maximum Humidity 100    
Minimum Humidity 64    
Precipitation  
Precipitation 0.00 in - - ()
Sea Level Pressure  
Sea Level Pressure 29.82 in    
Wind  
Wind Speed 3 mph (NE)    
Max Wind Speed 9 mph    
Max Gust Speed -    
Visibility 8 miles    
Events Fog    
Averages and records for this station are not official NWS values.
T = Trace of Precipitation, MM = Missing Value Source: NWS Daily Summary

Daily Weather History Graph

Daily Weather History Graph

Search for Another Location

Airport or City:

Astronomy

Jun. 30, 2013 Rise Set
Actual Time 5:31 AM EDT 8:47 PM EDT
Civil Twilight 4:57 AM EDT 9:21 PM EDT
Nautical Twilight 4:12 AM EDT 10:06 PM EDT
Astronomical Twilight 3:17 AM EDT 11:00 PM EDT
Moon 12:35 AM EDT (6/30) 1:54 PM EDT (6/30)
Length of Visible Light 16h 24m
Length of Day
15h 15m
Last Quarter, 45% of the Moon is Illuminated
Jun 30
Last Quarter
Jul 8
New
Jul 15
First Quarter
Jul 22
Full
Jul 29
Last Quarter

Hourly Weather History & Observations

Time (EDT) Temp. Dew Point Humidity Pressure Visibility Wind Dir Wind Speed Gust Speed Precip Events Conditions
12:33 AM 60.8 °F 59.0 °F 94% 29.74 in 1.8 mi Calm Calm - N/A   Clear
12:39 AM 60.8 °F 59.0 °F 94% 29.74 in 1.0 mi Calm Calm - N/A   Clear
12:56 AM 59.9 °F 59.9 °F 100% 29.73 in 1.0 mi East 4.6 mph - N/A   Clear
1:01 AM 60.8 °F 60.8 °F 100% 29.74 in 1.5 mi East 4.6 mph - N/A   Clear
1:05 AM 60.8 °F 60.8 °F 100% 29.74 in 3.0 mi East 3.5 mph - N/A   Clear
1:56 AM 59.9 °F 59.9 °F 100% 29.73 in 9.0 mi ENE 3.5 mph - N/A   Clear
2:56 AM 61.0 °F 59.9 °F 96% 29.74 in 8.0 mi ENE 4.6 mph - N/A   Mostly Cloudy
3:56 AM 59.9 °F 59.9 °F 100% 29.75 in 7.0 mi ENE 3.5 mph - N/A   Partly Cloudy
4:56 AM 59.9 °F 59.0 °F 97% 29.75 in 9.0 mi East 4.6 mph - N/A   Clear
5:33 AM 59.0 °F 57.2 °F 94% 29.78 in 1.2 mi Calm Calm - N/A   Clear
5:40 AM 57.2 °F 57.2 °F 100% 29.78 in 1.0 mi Calm Calm - N/A   Clear
5:56 AM 57.9 °F 57.9 °F 100% 29.78 in 3.0 mi ENE 3.5 mph - N/A   Clear
6:24 AM 59.0 °F 57.2 °F 94% 29.80 in 0.1 mi East 5.8 mph - N/A Fog Fog
6:37 AM 60.8 °F 59.0 °F 94% 29.81 in 7.0 mi Calm Calm - N/A   Clear
6:56 AM 61.0 °F 59.9 °F 96% 29.80 in 10.0 mi East 3.5 mph - N/A   Clear
7:56 AM 64.9 °F 63.0 °F 93% 29.81 in 10.0 mi Calm Calm - N/A   Clear
8:33 AM 69.8 °F 64.4 °F 83% 29.84 in 10.0 mi SE 4.6 mph - N/A   Mostly Cloudy
8:56 AM 68.9 °F 63.0 °F 81% 29.83 in 10.0 mi Calm Calm - N/A   Mostly Cloudy
9:56 AM 72.0 °F 63.9 °F 76% 29.84 in 10.0 mi SSW 3.5 mph - N/A   Mostly Cloudy
10:24 AM 71.6 °F 64.4 °F 78% 29.85 in 10.0 mi Calm Calm - N/A   Mostly Cloudy
10:56 AM 72.9 °F 63.9 °F 73% 29.84 in 10.0 mi Calm Calm - N/A   Mostly Cloudy
11:03 AM 73.4 °F 64.4 °F 73% 29.85 in 10.0 mi Calm Calm - N/A   Clear
11:11 AM 73.4 °F 64.4 °F 73% 29.85 in 10.0 mi Variable 3.5 mph - N/A   Mostly Cloudy
11:49 AM 77.0 °F 64.4 °F 65% 29.85 in 10.0 mi NNW 5.8 mph - N/A   Partly Cloudy
11:56 AM 75.9 °F 63.9 °F 66% 29.84 in 10.0 mi ENE 3.5 mph - N/A   Scattered Clouds
12:56 PM 75.9 °F 63.9 °F 66% 29.83 in 10.0 mi Calm Calm - N/A   Mostly Cloudy
1:56 PM 77.9 °F 65.8 °F 66% 29.83 in 10.0 mi NW 6.9 mph - N/A   Mostly Cloudy
2:56 PM 79.0 °F 66.9 °F 66% 29.83 in 10.0 mi NNW 9.2 mph - N/A   Mostly Cloudy
3:56 PM 79.9 °F 66.9 °F 64% 29.82 in 10.0 mi NW 5.8 mph - N/A   Mostly Cloudy
4:56 PM 75.9 °F 65.8 °F 71% 29.83 in 10.0 mi WNW 6.9 mph - N/A   Scattered Clouds
5:56 PM 73.9 °F 65.8 °F 76% 29.85 in 10.0 mi NNW 3.5 mph - N/A   Mostly Cloudy
6:56 PM 73.9 °F 63.9 °F 71% 29.86 in 10.0 mi North 5.8 mph - 0.00 in   Overcast
7:56 PM 70.9 °F 65.8 °F 84% 29.88 in 10.0 mi NW 4.6 mph - N/A   Mostly Cloudy
8:56 PM 68.9 °F 64.9 °F 87% 29.91 in 10.0 mi Calm Calm - N/A   Mostly Cloudy
9:56 PM 68.0 °F 65.8 °F 93% 29.92 in 10.0 mi East 3.5 mph - 0.00 in   Mostly Cloudy
10:56 PM 68.0 °F 65.8 °F 93% 29.92 in 10.0 mi East 3.5 mph - N/A   Partly Cloudy
11:56 PM 66.9 °F 64.9 °F 93% 29.93 in 10.0 mi Calm Calm - N/A   Mostly Cloudy